FLOCK 4A-6 (44094 NORAD) Tracking and Keplerian Element Data

This shows tracking and keplerian element data for the satellite.

Feedback or suggestion? Click here.




ElementValue
Catalog44094
NameFLOCK 4A-6
Epoch Orbit310
Epoch Day111.72114913
Epoch Year2019
RAAN172.1147
Inclination97.4626
Eccentricity0.0010524
Argument of Perigee211.4708
Mean Anonmoly148.59
Mean Motion15.21876469
Decay Rate8.98E-06
L11 44094U 19018S 19111.72114913 .00000898 00000-0 42531-4 0 9995
L22 44094 97.4626 172.1147 0010524 211.4708 148.5900 15.21876469 3105

Live tracking and technical data element details for FLOCK 4A-6 (NORAD 44094). FLOCK 4A-6 can be tracked NOW for your location showing map with azimuth and elevation plus other details from your city location.

Track the satellite on the map from your city or location and see movement details for azimuth, elevation, latitude, longitude, range, height, and movement on the map or in text.







IsCatalogInMostPopularTable: catalog: 44094, numindb: 9
Update: records affected: 1



GetName: 44094 FLOCK 4A-6

Hit Count: updated at: Tue, 23 Apr 2019 02:23:04 GMT